This is the latest recevied weather packets stored in our database for station/object DL3NDS-WX. If no packets are shown the sender has not sent any weather packets the latest 1 day(s).
| Time | Temp. | Humidity | Pressure | Rain* | Wind** | Luminosity | Snow |
|---|---|---|---|---|---|---|---|
| 1778024673 | 11.11° C | 92% | 1008.4 hPa | 0 mm | 1.79 m/s, 238° | 0 W/m² | - |
| 1778024611 | 11.11° C | 92% | 1008.4 hPa | 0 mm | 1.34 m/s, 239° | 0 W/m² | - |
| 1778024550 | 11.11° C | 92% | 1008.5 hPa | 0 mm | 0.89 m/s, 262° | 0 W/m² | - |
| 1778024489 | 11.11° C | 92% | 1008.5 hPa | 0 mm | 0.89 m/s, 241° | 0 W/m² | - |
| 1778024427 | 11.11° C | 92% | 1008.5 hPa | 0 mm | 1.34 m/s, 222° | 0 W/m² | - |
| 1778024365 | 11.11° C | 92% | 1008.6 hPa | 0 mm | 0.89 m/s, 237° | 0 W/m² | - |
| 1778024316 | 11.11° C | 92% | 1008.5 hPa | 0 mm | 1.34 m/s, 249° | 0 W/m² | - |
| 1778024244 | 11.11° C | 92% | 1008.5 hPa | 0 mm | 0.89 m/s, 221° | 0 W/m² | - |
| 1778024182 | 11.11° C | 92% | 1008.5 hPa | 0 mm | 0.89 m/s, 239° | 0 W/m² | - |
| 1778024121 | 11.11° C | 92% | 1008.5 hPa | 0 mm | 0.89 m/s, 234° | 0 W/m² | - |
| 1778024055 | 11.11° C | 92% | 1008.5 hPa | 0 mm | 1.34 m/s, 239° | 0 W/m² | - |
| 1778023994 | 11.11° C | 92% | 1008.5 hPa | 0 mm | 1.34 m/s, 243° | 0 W/m² | - |
| 1778023932 | 11.11° C | 92% | 1008.4 hPa | 0 mm | 0.89 m/s, 253° | 0 W/m² | - |
| 1778023899 | 11.11° C | 92% | 1008.5 hPa | 0 mm | 0.45 m/s, 237° | 0 W/m² | - |
| 1778023866 | 11.11° C | 93% | 1008.4 hPa | 0 mm | 0.89 m/s, 264° | 0 W/m² | - |
| 1778023749 | 11.11° C | 93% | 1008.5 hPa | 0 mm | 0.89 m/s, 229° | 0 W/m² | - |
| 1778023688 | 11.11° C | 93% | 1008.5 hPa | 0 mm | 0.89 m/s, 229° | 0 W/m² | - |
| 1778023625 | 10.56° C | 93% | 1008.5 hPa | 0 mm | 0.89 m/s, 211° | 0 W/m² | - |
| 1778023564 | 11.11° C | 93% | 1008.4 hPa | 0 mm | 0.89 m/s, 241° | 0 W/m² | - |
| 1778023502 | 10.56° C | 93% | 1008.4 hPa | 0 mm | 0.89 m/s, 247° | 0 W/m² | - |
| 1778023441 | 10.56° C | 93% | 1008.4 hPa | 0 mm | 0.45 m/s, 203° | 0 W/m² | - |
| 1778023379 | 10.56° C | 93% | 1008.4 hPa | 0 mm | 0.89 m/s, 202° | 0 W/m² | - |
| 1778023318 | 10.56° C | 93% | 1008.4 hPa | 0 mm | 0.89 m/s, 237° | 0 W/m² | - |
| 1778023258 | 10.56° C | 93% | 1008.4 hPa | 0 mm | 0.89 m/s, 239° | 0 W/m² | - |
| 1778023197 | 10.56° C | 93% | 1008.4 hPa | 0 mm | 0.45 m/s, 220° | 0 W/m² | - |
* Rain latest hour (hover to see other rain measurements)
** Current wind speed in m/s (hover to see current wind gust speed)